FW5910 Weather Reports


time (UTC)temp
C
wind
direction
speed
KPH
gust
KPH
rain 1hr
cm
rain 24hr
cm
rain mn
cm
humidity
%
barometer
mb
20260831030714 13 111 0.0 1.6 0.00 0.05 0.05 73 1016.4
20260831030210 13 111 0.0 1.6 0.00 0.05 0.05 72 1016.3
20260831025708 13 111 0.0 1.6 0.00 0.05 0.05 71 1016.2
20260831024706 13 147 0.0 1.6 0.00 0.05 0.05 70 1016.1
20260831024209 13 147 0.0 1.6 0.00 0.05 0.05 70 1016.0
20260831023709 13 147 0.0 0.0 0.00 0.05 0.05 73 1016.0
20260831023205 13 147 0.0 0.0 0.00 0.05 0.05 69 1016.0
20260831022704 13 147 0.0 1.6 0.00 0.05 0.05 69 1015.9
20260831022204 13 147 0.0 1.6 0.00 0.05 0.05 72 1015.7
20260831021702 14 147 0.0 0.0 0.00 0.05 0.05 72 1015.6
20260831021203 14 147 0.0 1.6 0.00 0.05 0.05 72 1015.7
20260831020704 14 147 0.0 1.6 0.00 0.05 0.05 74 1015.6
20260831020203 14 99 0.0 0.0 0.00 0.05 0.05 69 1015.6
20260831015703 15 99 0.0 0.0 0.00 0.05 0.05 70 1015.6
20260831015203 15 99 0.0 1.6 0.00 0.05 0.05 67 1015.5
20260831014704 15 99 0.0 1.6 0.00 0.05 0.05 65 1015.5
20260831014204 15 99 0.0 1.6 0.00 0.05 0.05 65 1015.5
20260831013703 15 100 0.0 3.2 0.00 0.05 0.05 68 1015.5
20260831013203 15 99 0.0 3.2 0.00 0.05 0.05 67 1015.6
20260831012702 15 106 1.6 3.2 0.00 0.05 0.05 66 1015.6
20260831012202 15 96 1.6 3.2 0.00 0.05 0.05 63 1015.5
20260831011702 15 91 1.6 3.2 0.00 0.05 0.05 64 1015.6
20260831011203 15 78 1.6 3.2 0.00 0.05 0.05 64 1015.7
20260831010702 15 17 0.0 1.6 0.00 0.05 0.05 62 1015.6
20260831010202 15 78 0.0 1.6 0.00 0.05 0.05 64 1015.5
20260831005703 15 78 0.0 1.6 0.00 0.05 0.05 64 1015.5
20260831005204 15 78 0.0 1.6 0.00 0.05 0.05 64 1015.5
20260831004704 15 78 0.0 1.6 0.00 0.05 0.05 62 1015.5
20260831004202 15 78 0.0 1.6 0.00 0.05 0.05 62 1015.6
20260831003702 15 78 0.0 3.2 0.00 0.05 0.05 59 1015.7
20260831003202 15 78 1.6 4.8 0.00 0.05 0.05 61 1015.6
20260831002705 15 87 1.6 4.8 0.00 0.05 0.05 59 1015.6
20260831001702 15 74 0.0 1.6 0.00 0.05 0.05 59 1015.6
20260831001202 15 345 0.0 1.6 0.00 0.05 0.05 61 1015.5
20260831000702 15 288 0.0 1.6 0.00 0.05 0.05 62 1015.4
20260831000203 15 232 0.0 0.0 0.00 0.05 0.05 62 1015.4
20260830235702 15 232 0.0 0.0 0.00 0.05 0.05 62 1015.5
20260830235203 15 232 0.0 0.0 0.00 0.05 0.05 63 1015.5
20260830234203 15 232 0.0 1.6 0.00 0.05 0.05 64 1015.5
20260830233202 15 99 0.0 1.6 0.00 0.05 0.05 64 1015.5
20260830232702 15 99 0.0 1.6 0.00 0.05 0.05 63 1015.5
20260830232203 15 98 0.0 1.6 0.00 0.05 0.05 62 1015.5
20260830231702 15 98 0.0 3.2 0.00 0.05 0.05 65 1015.5
20260830231202 14 98 0.0 3.2 0.00 0.05 0.05 65 1015.5
20260830230703 14 82 0.0 1.6 0.00 0.05 0.05 66 1015.5
20260830225703 14 82 0.0 1.6 0.00 0.05 0.05 73 1015.6
20260830225202 14 80 0.0 1.6 0.00 0.05 0.05 72 1015.5
20260830224202 13 104 0.0 1.6 0.00 0.05 0.05 74 1015.5
20260830223706 13 103 0.0 1.6 0.00 0.05 0.05 71 1015.6
20260830223206 14 104 0.0 1.6 0.00 0.05 0.05 71 1015.6
20260830222706 13 104 0.0 1.6 0.00 0.05 0.05 72 1015.5
20260830222202 13 138 0.0 1.6 0.00 0.05 0.05 70 1015.5
20260830221705 13 138 0.0 3.2 0.00 0.05 0.05 70 1015.6
20260830221203 13 119 0.0 3.2 0.00 0.05 0.05 74 1015.6
20260830220703 13 101 0.0 1.6 0.00 0.05 0.05 71 1015.7
20260830220208 13 164 0.0 1.6 0.00 0.05 0.05 71 1015.6
20260830215704 13 164 0.0 1.6 0.00 0.05 0.05 70 1015.6
20260830215202 13 130 0.0 3.2 0.00 0.05 0.05 70 1015.7
20260830214704 13 214 0.0 3.2 0.00 0.05 0.05 70 1015.7
20260830214202 13 92 0.0 3.2 0.00 0.05 0.05 69 1015.9
20260830213703 14 96 3.2 11.3 0.00 0.05 0.05 70 1015.9
20260830213203 13 96 4.8 11.3 0.00 0.05 0.05 66 1015.7
20260830212703 13 80 1.6 9.7 0.00 0.05 0.05 67 1015.7
20260830212204 13 88 0.0 1.6 0.00 0.05 0.05 71 1015.9
20260830211706 13 98 0.0 3.2 0.00 0.05 0.05 71 1015.9
20260830210702 13 86 0.0 3.2 0.00 0.05 0.05 72 1016.0
20260830210203 13 14 0.0 3.2 0.00 0.05 0.05 72 1016.0
20260830205704 13 14 0.0 3.2 0.00 0.05 0.05 71 1016.0
20260830204705 13 125 0.0 3.2 0.00 0.05 0.05 72 1015.9
20260830204202 13 134 0.0 4.8 0.00 0.05 0.05 72 1015.9
20260830203703 13 236 1.6 4.8 0.00 0.05 0.05 74 1015.7
20260830203202 13 109 1.6 4.8 0.00 0.05 0.05 70 1015.6
20260830202702 13 101 1.6 4.8 0.00 0.05 0.05 72 1015.6
20260830202158 13 322 0.0 3.2 0.00 0.05 0.05 74 1015.7
20260830201146 12 98 1.6 4.8 0.00 0.05 0.05 75 1015.7
20260830200640 12 195 1.6 4.8 0.00 0.05 0.05 73 1015.9
20260830200134 12 100 1.6 3.2 0.00 0.05 0.05 74 1015.6
20260830195135 12 114 1.6 6.4 0.00 0.05 0.05 74 1015.7
20260830194633 12 111 1.6 6.4 0.00 0.05 0.05 75 1015.6
20260830194133 12 98 0.0 3.2 0.00 0.05 0.05 76 1015.6
20260830193630 12 225 0.0 3.2 0.00 0.05 0.05 78 1015.6
20260830193134 12 265 0.0 1.6 0.00 0.05 0.05 75 1015.5
20260830192631 12 236 0.0 4.8 0.00 0.05 0.05 77 1015.4
20260830191631 12 125 1.6 3.2 0.00 0.05 0.05 77 1015.4
20260830190631 12 107 1.6 4.8 0.00 0.05 0.05 78 1015.4
20260830185630 11 290 0.0 4.8 0.00 0.05 0.05 76 1015.3
20260830185131 11 123 1.6 9.7 0.00 0.05 0.05 78 1015.3
20260830184631 11 224 1.6 9.7 0.00 0.05 0.05 77 1015.3
20260830184131 11 119 1.6 4.8 0.00 0.05 0.05 80 1015.3
20260830183631 11 41 1.6 4.8 0.00 0.05 0.05 76 1015.3
20260830183131 11 238 0.0 3.2 0.00 0.05 0.05 77 1015.2
20260830182633 11 105 0.0 3.2 0.00 0.05 0.05 81 1015.2
20260830182132 11 118 1.6 4.8 0.00 0.05 0.05 80 1015.2
20260830181631 11 130 1.6 4.8 0.00 0.05 0.05 79 1015.1
20260830181131 11 103 1.6 4.8 0.00 0.05 0.05 79 1015.2
20260830180136 11 217 1.6 6.4 0.00 0.05 0.05 83 1015.2
20260830175631 11 130 1.6 6.4 0.00 0.05 0.05 80 1015.1
20260830175132 11 187 0.0 3.2 0.00 0.05 0.05 83 1015.0
20260830174631 11 111 1.6 6.4 0.03 0.05 0.05 83 1015.0
20260830174131 11 135 1.6 9.7 0.03 0.05 0.05 83 1014.9
20260830173630 11 98 1.6 9.7 0.03 0.05 0.05 81 1014.9
20260830173131 11 214 3.2 8.0 0.03 0.05 0.05 84 1014.9
20260830172631 11 171 4.8 8.0 0.03 0.05 0.05 82 1014.9
20260830172130 11 73 4.8 8.0 0.03 0.05 0.05 82 1014.8
20260830171629 11 104 3.2 6.4 0.03 0.05 0.05 82 1014.9
20260830171130 11 78 3.2 6.4 0.03 0.05 0.05 81 1014.9
20260830170630 11 91 1.6 6.4 0.03 0.05 0.05 82 1014.6
20260830170129 11 114 1.6 4.8 0.03 0.05 0.05 84 1014.8
20260830165629 11 91 1.6 4.8 0.03 0.05 0.05 84 1014.8
20260830165130 11 119 1.6 4.8 0.03 0.05 0.05 85 1014.8
20260830164630 11 106 0.0 3.2 0.00 0.03 0.03 83 1014.6
20260830163628 10 289 0.0 1.6 0.03 0.03 0.03 83 1014.5
20260830163130 10 129 0.0 3.2 0.03 0.03 0.03 87 1014.5
20260830162629 10 207 0.0 3.2 0.03 0.03 0.03 88 1014.6
20260830162131 11 240 0.0 0.0 0.03 0.03 0.03 86 1014.5
20260830161629 11 295 0.0 0.0 0.03 0.03 0.03 85 1014.5
20260830161129 11 295 0.0 0.0 0.03 0.03 0.03 84 1014.5
20260830155624 11 148 1.6 6.4 0.03 0.03 0.03 78 1014.5
20260830155118 11 114 1.6 6.4 0.03 0.03 0.03 77 1014.6
20260830154613 11 257 0.0 1.6 0.03 0.03 0.00 75 1014.6
20260830154106 11 254 0.0 1.6 0.00 0.00 0.00 70 1014.6
20260830153603 12 239 0.0 1.6 0.00 0.00 0.00 73 1014.6
20260830153105 12 239 0.0 0.0 0.00 0.00 0.00 72 1014.6
20260830152606 12 239 0.0 1.6 0.00 0.00 0.00 71 1014.6
20260830152104 12 239 0.0 1.6 0.00 0.00 0.00 73 1014.8
20260830151102 11 227 0.0 1.6 0.00 0.00 0.00 69 1014.6
20260830150606 11 227 0.0 1.6 0.00 0.00 0.00 70 1014.6
20260830150105 11 227 0.0 1.6 0.00 0.00 0.00 67 1014.8
20260830145604 12 227 0.0 3.2 0.00 0.00 0.00 70 1014.8
20260830145103 12 72 0.0 3.2 0.00 0.00 0.00 69 1014.8
20260830144102 12 100 0.0 1.6 0.00 0.00 0.00 66 1014.6
20260830143603 12 39 0.0 1.6 0.00 0.00 0.00 66 1014.8
20260830143107 12 29 0.0 3.2 0.00 0.00 0.00 65 1014.8
20260830142603 11 236 0.0 3.2 0.00 0.00 0.00 69 1014.6
20260830141604 11 226 0.0 3.2 0.00 0.00 0.00 70 1014.6
20260830141103 11 237 1.6 9.7 0.00 0.00 0.00 70 1014.6
20260830140609 11 240 1.6 9.7 0.00 0.00 0.00 71 1014.6
20260830140105 11 74 0.0 3.2 0.00 0.00 0.00 76 1014.6
20260830135606 11 142 0.0 3.2 0.00 0.00 0.00 75 1014.6
20260830135102 11 349 0.0 3.2 0.00 0.00 0.00 71 1014.5
20260830134103 12 26 0.0 3.2 0.00 0.00 0.00 69 1014.5
20260830133605 12 10 0.0 3.2 0.00 0.00 0.00 63 1014.5
20260830132103 12 331 0.0 1.6 0.00 0.00 0.00 61 1014.4
20260830131607 12 331 0.0 3.2 0.00 0.00 0.00 61 1014.4
20260830130604 12 321 0.0 3.2 0.00 0.00 0.00 61 1014.3
20260830125604 12 89 0.0 1.6 0.00 0.00 0.00 61 1014.2
20260830125102 13 98 0.0 1.6 0.00 0.00 0.00 61 1014.1
20260830124605 13 95 0.0 1.6 0.00 0.00 0.00 58 1014.0
20260830124100 13 95 0.0 1.6 0.00 0.00 0.00 58 1013.9
20260830123549 12 146 0.0 1.6 0.00 0.00 0.00 58 1013.8
20260830123049 12 246 0.0 1.6 0.00 0.00 0.00 62 1013.8
20260830122538 13 224 0.0 1.6 0.00 0.00 0.00 60 1013.8
20260830122031 13 223 0.0 1.6 0.00 0.00 0.00 58 1013.8
20260830121528 13 223 0.0 3.2 0.00 0.00 0.00 58 1013.8
20260830121020 13 299 0.0 3.2 0.00 0.00 0.00 58 1013.8
20260830120513 13 231 0.0 0.0 0.00 0.00 0.00 58 1013.8
20260830120015 13 231 0.0 0.0 0.00 0.00 0.00 58 1013.8
20260830115512 13 233 0.0 1.6 0.00 0.00 0.00 58 1013.6
20260830115010 13 194 0.0 1.6 0.00 0.00 0.00 59 1013.4
20260830114512 13 194 0.0 1.6 0.00 0.00 0.00 58 1013.7
20260830113510 13 207 0.0 3.2 0.00 0.00 0.00 58 1013.8
20260830113007 13 232 0.0 1.6 0.00 0.00 0.00 58 1013.7
20260830112508 13 242 0.0 1.6 0.00 0.00 0.00 57 1013.7
20260830112005 13 242 0.0 1.6 0.00 0.00 0.00 57 1013.7
20260830111507 13 242 0.0 1.6 0.00 0.00 0.00 56 1013.7
20260830111005 13 219 0.0 1.6 0.00 0.00 0.00 56 1013.6
20260830110506 13 309 0.0 1.6 0.00 0.00 0.00 57 1013.6
20260830105504 13 292 0.0 1.6 0.00 0.00 0.00 56 1013.6
20260830105005 13 202 0.0 1.6 0.00 0.00 0.00 56 1013.6
20260830104503 13 198 0.0 1.6 0.00 0.00 0.00 57 1013.6
20260830104008 13 248 0.0 3.2 0.00 0.00 0.00 56 1013.6
20260830103502 13 142 1.6 3.2 0.00 0.00 0.00 57 1013.4
20260830102958 13 107 0.0 3.2 0.00 0.00 0.00 57 1013.3
20260830102456 13 281 0.0 1.6 0.00 0.00 0.00 56 1013.4
20260830101954 13 236 0.0 1.6 0.00 0.00 0.00 57 1013.4
20260830101455 13 126 0.0 3.2 0.00 0.00 0.00 56 1013.4
20260830100955 13 163 0.0 3.2 0.00 0.00 0.00 56 1013.6
20260830100454 13 114 0.0 3.2 0.00 0.00 0.00 54 1013.4
20260830095955 13 114 0.0 3.2 0.00 0.00 0.00 54 1013.6
20260830094955 13 226 0.0 1.6 0.00 0.00 0.00 56 1013.8
20260830094453 13 226 0.0 1.6 0.00 0.00 0.00 54 1013.7
20260830093953 13 267 0.0 3.2 0.00 0.00 0.00 55 1013.6
20260830092953 13 222 0.0 1.6 0.00 0.00 0.00 54 1013.6
20260830091954 13 55 0.0 1.6 0.00 0.00 0.00 52 1013.6
20260830091447 13 190 0.0 0.0 0.00 0.00 0.00 52 1013.4
20260830090445 13 189 0.0 3.2 0.00 0.00 0.00 53 1013.6
20260830085946 13 234 0.0 1.6 0.00 0.00 0.00 54 1013.8
20260830085446 13 273 0.0 3.2 0.00 0.00 0.00 53 1013.7
20260830084946 13 231 1.6 4.8 0.00 0.00 0.00 53 1013.8
20260830084448 13 280 1.6 4.8 0.00 0.00 0.00 56 1013.8
20260830083948 13 206 0.0 3.2 0.00 0.00 0.00 54 1013.8
20260830083445 13 225 1.6 4.8 0.00 0.00 0.00 56 1013.9
20260830082945 13 150 1.6 4.8 0.00 0.00 0.00 52 1013.7
20260830082446 13 355 1.6 8.0 0.00 0.00 0.00 53 1013.7
20260830081946 13 61 1.6 8.0 0.00 0.00 0.00 53 1013.7
20260830081445 13 321 0.0 6.4 0.00 0.00 0.00 53 1013.8
20260830080946 13 98 0.0 6.4 0.00 0.00 0.00 54 1013.8
20260830080446 13 198 0.0 3.2 0.00 0.00 0.00 54 1013.8
20260830075446 12 204 1.6 6.4 0.00 0.00 0.00 53 1013.9
20260830074945 13 38 1.6 4.8 0.00 0.00 0.00 56 1014.0
20260830074442 13 193 0.0 3.2 0.00 0.00 0.00 52 1013.8
20260830073941 13 241 3.2 16.1 0.00 0.00 0.00 51 1013.8
20260830073443 13 199 3.2 16.1 0.00 0.00 0.00 50 1013.8
20260830071943 13 111 0.0 4.8 0.00 0.00 0.00 53 1013.8
20260830071444 13 83 0.0 1.6 0.00 0.00 0.00 53 1013.9
20260830070942 13 243 0.0 1.6 0.00 0.00 0.00 50 1013.9
20260830070444 13 220 0.0 1.6 0.00 0.00 0.00 52 1013.8
20260830065443 13 65 0.0 4.8 0.00 0.00 0.00 49 1013.8
20260830064943 14 65 0.0 4.8 0.00 0.00 0.00 48 1013.7
20260830063941 14 93 0.0 1.6 0.00 0.00 0.00 47 1013.7
20260830063441 14 105 1.6 4.8 0.00 0.00 0.00 47 1013.7
20260830062938 14 74 1.6 4.8 0.00 0.00 0.00 47 1013.7
20260830062438 14 108 1.6 4.8 0.00 0.00 0.00 47 1013.7
20260830061937 14 218 1.6 4.8 0.00 0.00 0.00 47 1013.7
20260830061436 14 280 0.0 3.2 0.00 0.00 0.00 47 1013.8
20260830060937 15 276 1.6 3.2 0.00 0.00 0.00 46 1013.9
20260830060434 15 110 0.0 3.2 0.00 0.00 0.00 46 1013.7
20260830055933 15 136 0.0 4.8 0.00 0.00 0.00 47 1013.7
20260830055431 15 51 0.0 4.8 0.00 0.00 0.00 48 1013.6
20260830054931 15 5 0.0 4.8 0.00 0.00 0.00 48 1013.4
20260830054430 15 301 0.0 4.8 0.00 0.00 0.00 47 1013.4
20260830053930 15 328 0.0 1.6 0.00 0.00 0.00 45 1013.4
20260830053430 15 343 0.0 3.2 0.00 0.00 0.00 44 1013.6
20260830052431 15 106 0.0 1.6 0.00 0.00 0.00 45 1013.7
20260830051931 15 225 0.0 1.6 0.00 0.00 0.00 47 1013.8
20260830050931 15 238 0.0 3.2 0.00 0.00 0.00 49 1013.7
20260830045931 15 286 0.0 3.2 0.00 0.00 0.00 47 1013.7
20260830045431 15 286 0.0 3.2 0.00 0.00 0.00 45 1013.6
20260830044930 15 32 0.0 1.6 0.00 0.00 0.00 48 1013.7
20260830044431 15 325 0.0 1.6 0.00 0.00 0.00 44 1013.8
20260830043430 15 325 0.0 1.6 0.00 0.00 0.00 44 1013.7
20260830042930 15 325 0.0 3.2 0.00 0.00 0.00 43 1013.6
20260830042430 15 325 0.0 3.2 0.00 0.00 0.00 42 1013.4
20260830041932 15 315 0.0 3.2 0.00 0.00 0.00 41 1013.4
20260830041432 16 279 0.0 1.6 0.00 0.00 0.00 41 1013.4
20260830040932 16 279 0.0 3.2 0.00 0.00 0.00 41 1013.2
20260830040432 16 277 0.0 3.2 0.00 0.00 0.00 41 1013.1
20260830035931 16 306 0.0 1.6 0.00 0.00 0.00 43 1013.0
20260830035430 16 101 0.0 3.2 0.00 0.00 0.00 42 1013.0
20260830034930 16 20 0.0 3.2 0.00 0.00 0.00 42 1013.1
20260830034431 16 285 0.0 3.2 0.00 0.00 0.00 44 1013.1
20260830033431 16 321 0.0 3.2 0.00 0.00 0.00 47 1013.1
20260830032930 16 248 0.0 3.2 0.00 0.00 0.00 47 1012.9
20260830032432 16 144 0.0 1.6 0.00 0.00 0.00 44 1012.8
20260830031931 16 103 0.0 0.0 0.00 0.00 0.00 44 1012.7
20260830031433 17 304 0.0 4.8 0.00 0.00 0.00 44 1012.7